Madison, MN

11:25 PM CST on December 09, 2019 (GMT -0600)
Madison-Lac Qui Parle County

Weather History for KDXX - November, 2019

Change the Weather History Date:

Tuesday, November 12, 2019

  Actual Average (KAQP) Record (KAQP)
Temperature  
Mean Temperature 14 °F -  
Max Temperature 26 °F 39 °F 64 °F (1999)
Min Temperature 1 °F 22 °F 3 °F (1996)
Degree Days  
Heating Degree Days 52    
Moisture  
Dew Point 8 °F    
Average Humidity 69    
Maximum Humidity 85    
Minimum Humidity 50    
Precipitation  
Precipitation 0.00 in - - ()
Sea Level Pressure  
Sea Level Pressure 30.24 in    
Wind  
Wind Speed 10 mph (South)    
Max Wind Speed 29 mph    
Max Gust Speed 33 mph    
Visibility 10 miles    
Events      
Averages and records for this station are not official NWS values.
T = Trace of Precipitation, MM = Missing Value Source: NWS Daily Summary

Daily Weather History Graph

Daily Weather History Graph

Search for Another Location

Airport or City:

Astronomy

Nov. 12, 2019 Rise Set
Actual Time 7:18 AM CST 4:59 PM CST
Civil Twilight 6:46 AM CST 5:30 PM CST
Nautical Twilight 6:11 AM CST 6:05 PM CST
Astronomical Twilight 5:36 AM CST 6:40 PM CST
Moon 5:27 PM CST (11/12) 7:08 AM CST (11/12)
Length of Visible Light 10h 44m
Length of Day
9h 41m
Full, 100% of the Moon is Illuminated
Nov 12
Full
Nov 19
Last Quarter
Nov 26
New
Dec 4
First Quarter
Dec 11
Full

Hourly Weather History & Observations

Time (CST) Temp. Windchill Dew Point Humidity Pressure Visibility Wind Dir Wind Speed Gust Speed Precip Events Conditions
12:15 AM 5.0 °F -2.1 °F -0.4 °F 78% 30.61 in 10.0 mi WSW 3.5 mph - N/A   Clear
12:16 AM 5.0 °F - -0.4 °F 78% 30.61 in 10.0 mi Calm Calm - N/A   Clear
12:35 AM 6.8 °F - -0.4 °F 72% 30.60 in 10.0 mi Calm Calm - N/A   Clear
12:39 AM 5.0 °F - -0.4 °F 78% 30.60 in 10.0 mi Calm Calm - N/A   Clear
12:58 AM 3.2 °F -4.2 °F -0.4 °F 85% 30.60 in 10.0 mi SW 3.5 mph - N/A   Clear
1:16 AM 3.2 °F -4.2 °F -0.4 °F 85% 30.60 in 10.0 mi SSW 3.5 mph - N/A   Clear
1:35 AM 3.2 °F -6.2 °F -0.4 °F 85% 30.59 in 10.0 mi SW 4.6 mph - N/A   Clear
1:36 AM 3.2 °F -6.2 °F -0.4 °F 85% 30.59 in 10.0 mi SW 4.6 mph - N/A   Clear
1:55 AM 3.2 °F -6.2 °F -0.4 °F 85% 30.59 in 10.0 mi SW 4.6 mph - N/A   Clear
1:56 AM 3.2 °F -6.2 °F -0.4 °F 85% 30.59 in 10.0 mi SW 4.6 mph - N/A   Clear
2:18 AM 3.2 °F -6.2 °F -0.4 °F 85% 30.59 in 10.0 mi SW 4.6 mph - N/A   Clear
2:36 AM 3.2 °F -6.2 °F -2.2 °F 78% 30.58 in 10.0 mi SW 4.6 mph - N/A   Clear
2:55 AM 3.2 °F -4.2 °F -0.4 °F 85% 30.57 in 10.0 mi SW 3.5 mph - N/A   Clear
3:15 AM 3.2 °F -7.8 °F -2.2 °F 78% 30.56 in 10.0 mi SSW 5.8 mph - N/A   Clear
3:16 AM 3.2 °F -7.8 °F -2.2 °F 78% 30.56 in 10.0 mi SSW 5.8 mph - N/A   Clear
3:35 AM 3.2 °F -4.2 °F -2.2 °F 78% 30.54 in 10.0 mi SSW 3.5 mph - N/A   Clear
3:40 AM 3.2 °F -6.2 °F -2.2 °F 78% 30.54 in 10.0 mi South 4.6 mph - N/A   Clear
3:57 AM 3.2 °F -6.2 °F -2.2 °F 78% 30.53 in 10.0 mi SSW 4.6 mph - N/A   Clear
4:35 AM 3.2 °F -7.8 °F -2.2 °F 78% 30.52 in 10.0 mi South 5.8 mph - N/A   Clear
4:55 AM 1.4 °F -8.3 °F -2.2 °F 85% 30.50 in 10.0 mi South 4.6 mph - N/A   Clear
4:56 AM 1.4 °F -9.9 °F -2.2 °F 85% 30.50 in 10.0 mi South 5.8 mph - N/A   Clear
5:18 AM 1.4 °F -9.9 °F -2.2 °F 85% 30.50 in 10.0 mi South 5.8 mph - N/A   Clear
5:37 AM 3.2 °F -7.8 °F -2.2 °F 78% 30.48 in 10.0 mi South 5.8 mph - N/A   Clear
5:56 AM 5.0 °F -8.1 °F -0.4 °F 78% 30.47 in 10.0 mi South 8.1 mph - N/A   Clear
6:15 AM 5.0 °F -8.1 °F -0.4 °F 78% 30.47 in 10.0 mi South 8.1 mph - N/A   Clear
6:16 AM 5.0 °F -8.1 °F -0.4 °F 78% 30.47 in 10.0 mi South 8.1 mph - N/A   Clear
6:35 AM 5.0 °F -5.6 °F -0.4 °F 78% 30.46 in 10.0 mi SSE 5.8 mph - N/A   Clear
6:57 AM 5.0 °F -6.9 °F -0.4 °F 78% 30.44 in 10.0 mi SSE 6.9 mph - N/A   Clear
7:16 AM 6.8 °F -5.9 °F 1.4 °F 79% 30.43 in 10.0 mi SSE 8.1 mph - N/A   Clear
7:35 AM 6.8 °F -6.9 °F 1.4 °F 79% 30.42 in 10.0 mi SSE 9.2 mph - N/A   Clear
7:36 AM 6.8 °F -7.8 °F 1.4 °F 79% 30.42 in 10.0 mi SSE 10.4 mph - N/A   Clear
7:55 AM 8.6 °F -4.7 °F 1.4 °F 73% 30.41 in 10.0 mi SSE 9.2 mph - N/A   Clear
7:56 AM 8.6 °F -4.7 °F 1.4 °F 73% 30.41 in 10.0 mi SSE 9.2 mph - N/A   Clear
8:19 AM 10.4 °F -4.1 °F 3.2 °F 73% 30.39 in 10.0 mi SSE 11.5 mph - N/A   Clear
8:36 AM 10.4 °F -4.8 °F 5.0 °F 79% 30.39 in 10.0 mi SSE 12.7 mph - N/A   Clear
8:56 AM 12.2 °F -4.3 °F 6.8 °F 79% 30.37 in 10.0 mi South 16.1 mph - N/A   Clear
9:15 AM 14.0 °F -1.4 °F 6.8 °F 73% 30.36 in 10.0 mi South 15.0 mph 21.9 mph N/A   Clear
9:35 AM 17.6 °F 2.2 °F 8.6 °F 68% 30.34 in 10.0 mi South 17.3 mph 20.7 mph N/A   Clear
9:39 AM 17.6 °F 2.7 °F 8.6 °F 68% 30.34 in 10.0 mi South 16.1 mph 20.7 mph N/A   Clear
10:15 AM 19.4 °F 4.5 °F 8.6 °F 63% 30.30 in 10.0 mi South 17.3 mph 25.3 mph N/A   Clear
10:35 AM 21.2 °F 5.6 °F 8.6 °F 58% 30.29 in 10.0 mi South 20.7 mph 26.5 mph N/A   Clear
10:36 AM 21.2 °F 5.6 °F 8.6 °F 58% 30.29 in 10.0 mi South 20.7 mph 26.5 mph N/A   Clear
10:55 AM 21.2 °F 5.2 °F 6.8 °F 54% 30.27 in 10.0 mi South 21.9 mph - N/A   Clear
10:56 AM 19.4 °F 3.6 °F 6.8 °F 58% 30.27 in 10.0 mi South 19.6 mph 25.3 mph N/A   Clear
11:36 AM 21.2 °F 6.0 °F 8.6 °F 58% 30.24 in 10.0 mi South 19.6 mph 26.5 mph N/A   Clear
11:55 AM 21.2 °F 5.2 °F 8.6 °F 58% 30.21 in 10.0 mi SSE 21.9 mph 28.8 mph N/A   Clear
11:56 AM 23.0 °F 7.6 °F 8.6 °F 54% 30.21 in 10.0 mi SSE 21.9 mph 28.8 mph N/A   Clear
12:15 PM 23.0 °F 7.6 °F 8.6 °F 54% 30.20 in 10.0 mi South 21.9 mph 26.5 mph N/A   Clear
12:16 PM 23.0 °F 8.0 °F 8.6 °F 54% 30.20 in 10.0 mi South 20.7 mph 26.5 mph N/A   Clear
12:39 PM 24.8 °F 9.0 °F 8.6 °F 50% 30.18 in 10.0 mi SSE 25.3 mph 29.9 mph N/A   Clear
12:56 PM 24.8 °F 9.3 °F 10.4 °F 54% 30.15 in 10.0 mi South 24.2 mph 32.2 mph N/A   Clear
1:16 PM 24.8 °F 8.7 °F 10.4 °F 54% 30.14 in 10.0 mi SSE 26.5 mph 29.9 mph N/A   Clear
1:35 PM 24.8 °F 8.4 °F 10.4 °F 54% 30.11 in 10.0 mi SSE 27.6 mph 33.4 mph N/A   Clear
1:55 PM 26.6 °F 12.4 °F 10.4 °F 51% 30.09 in 10.0 mi SSE 21.9 mph 32.2 mph N/A   Clear
1:59 PM 26.6 °F 11.7 °F 10.4 °F 51% 30.09 in 10.0 mi SSE 24.2 mph 32.2 mph N/A   Clear
2:17 PM 26.6 °F 10.6 °F 12.2 °F 55% 30.07 in 10.0 mi SSE 28.8 mph 33.4 mph N/A   Clear
2:36 PM 26.6 °F 12.0 °F 12.2 °F 55% 30.08 in 10.0 mi South 23.0 mph 33.4 mph N/A   Clear
2:55 PM 26.6 °F 11.4 °F 12.2 °F 55% 30.08 in 10.0 mi South 25.3 mph 29.9 mph N/A   Clear
2:56 PM 26.6 °F 11.7 °F 12.2 °F 55% 30.08 in 10.0 mi South 24.2 mph 29.9 mph N/A   Clear
3:15 PM 26.6 °F 11.7 °F 12.2 °F 55% 30.06 in 10.0 mi South 24.2 mph 28.8 mph N/A   Clear
3:37 PM 26.6 °F 13.1 °F 12.2 °F 55% 30.06 in 10.0 mi South 19.6 mph 26.5 mph N/A   Clear
3:56 PM 26.6 °F 11.7 °F 12.2 °F 55% 30.03 in 10.0 mi South 24.2 mph 27.6 mph N/A   Clear
4:15 PM 26.6 °F 11.4 °F 12.2 °F 55% 30.02 in 10.0 mi South 25.3 mph 32.2 mph N/A   Clear
4:16 PM 26.6 °F 11.7 °F 12.2 °F 55% 30.02 in 10.0 mi South 24.2 mph 32.2 mph N/A   Clear
4:35 PM 26.6 °F 13.1 °F 12.2 °F 55% 30.01 in 10.0 mi South 19.6 mph 25.3 mph N/A   Clear
4:59 PM 26.6 °F 12.7 °F 12.2 °F 55% 30.00 in 10.0 mi SSE 20.7 mph 26.5 mph N/A   Clear
5:16 PM 24.8 °F 10.3 °F 12.2 °F 59% 29.99 in 10.0 mi South 20.7 mph 25.3 mph N/A   Clear
5:36 PM 24.8 °F 11.1 °F 12.2 °F 59% 29.98 in 10.0 mi South 18.4 mph - N/A   Clear
6:15 PM 24.8 °F 13.4 °F 14.0 °F 64% 29.99 in 10.0 mi South 12.7 mph - N/A   Clear
6:38 PM 24.8 °F 13.4 °F 14.0 °F 64% 29.98 in 10.0 mi SSE 12.7 mph - N/A   Clear
6:55 PM 24.8 °F 13.4 °F 15.8 °F 69% 29.97 in 10.0 mi SSE 12.7 mph - N/A   Clear
7:16 PM 26.6 °F 15.2 °F 15.8 °F 64% 29.96 in 10.0 mi SSE 13.8 mph - N/A   Clear
7:35 PM 26.6 °F 14.7 °F 15.8 °F 64% 29.95 in 10.0 mi SSE 15.0 mph - N/A   Clear
7:36 PM 26.6 °F 14.7 °F 15.8 °F 64% 29.94 in 10.0 mi SSE 15.0 mph - N/A   Clear
7:59 PM 26.6 °F 15.2 °F 15.8 °F 64% 29.92 in 10.0 mi SSE 13.8 mph - N/A   Clear
8:16 PM 26.6 °F 14.7 °F 15.8 °F 64% 29.91 in 10.0 mi SSE 15.0 mph - N/A   Clear
8:35 PM 26.6 °F 15.2 °F 17.6 °F 69% 29.91 in 10.0 mi SSE 13.8 mph - N/A   Clear
8:55 PM 26.6 °F 16.8 °F 17.6 °F 69% 29.91 in 10.0 mi SSE 10.4 mph - N/A   Clear
8:56 PM 26.6 °F 16.2 °F 17.6 °F 69% 29.91 in 10.0 mi SE 11.5 mph - N/A   Clear
9:15 PM 26.6 °F 16.2 °F 17.6 °F 69% 29.91 in 10.0 mi SSE 11.5 mph - N/A   Clear
9:20 PM 26.6 °F 15.7 °F 17.6 °F 69% 29.90 in 10.0 mi SSE 12.7 mph - N/A   Clear
9:37 PM 26.6 °F 15.7 °F 17.6 °F 69% 29.89 in 10.0 mi SSE 12.7 mph - N/A   Clear
9:55 PM 26.6 °F 15.7 °F 17.6 °F 69% 29.89 in 10.0 mi SSE 12.7 mph - N/A   Clear
10:15 PM 26.6 °F 15.2 °F 17.6 °F 69% 29.89 in 10.0 mi SSE 13.8 mph - N/A   Clear
10:35 PM 24.8 °F 14.0 °F 17.6 °F 74% 29.87 in 10.0 mi SSE 11.5 mph - N/A   Clear
10:36 PM 24.8 °F 13.4 °F 17.6 °F 74% 29.87 in 10.0 mi SSE 12.7 mph - N/A   Clear
10:59 PM 24.8 °F 14.0 °F 17.6 °F 74% 29.86 in 10.0 mi SSE 11.5 mph - N/A   Mostly Cloudy
11:16 PM 24.8 °F 14.0 °F 17.6 °F 74% 29.85 in 10.0 mi SE 11.5 mph - N/A   Scattered Clouds
11:36 PM 24.8 °F 14.0 °F 17.6 °F 74% 29.84 in 10.0 mi SSE 11.5 mph - N/A   Clear
11:55 PM 24.8 °F 14.0 °F 17.6 °F 74% 29.83 in 10.0 mi SE 11.5 mph - N/A   Clear